{"data":{"norad_id":62778,"intl_designator":"2025-015W","name":"STARLINK-33573","alt_names":[],"object_type":"PAYLOAD","status":"ACTIVE","operator":null,"country":"US","launch_date":"2025-01-21","launch_site_code":"AFWTR","launch_vehicle":null,"mission":null,"orbit_class":"UNKNOWN","rcs_meters":null,"size_class":null,"mass_kg":null,"dimensions":null,"purposes":["comms"],"wikipedia_slug":null,"has_3d_model":false,"image_url":null,"decayed_at":null,"tle_current":{"epoch":"2026-09-21T20:13:09.185088Z","epoch_age_seconds":55374,"freshness":"FRESH","line1":"1 62778U 25015W   26264.84246742  .00021270  00000+0  63876-3 0  9994","line2":"2 62778  53.1580 127.7531 0001129  84.6299 275.4832 15.34405101 94560","mean_motion":15.34405101,"eccentricity":0.0001129,"inclination_deg":53.158,"raan_deg":127.7531,"arg_perigee_deg":84.6299,"mean_anomaly_deg":275.4832,"bstar":0.00063876,"rev_number":9456,"period_min":93.847446092399,"perigee_km":461.9157498507,"apogee_km":463.46040815354,"semimajor_km":6840.8250790021,"source":"CELESTRAK","updated_at":"2026-09-22T09:00:49.664839Z"}}}